Time,TemperatureF,DewpointF,PressureIn,WindDirection,WindDirectionDegrees,WindSpeedMPH,WindSpeedGustMPH,Humidity,HourlyPrecipIn,Conditions,Clouds,dailyrainin,SoftwareType,DateUTC
2013-03-28 00:02:00,26.0,23.0,-100.00,NNW,330,1.0,1.0,90,0.00,,,-99.99,,2013-03-28 05:02:00,
2013-03-28 00:12:00,26.0,24.0,-100.00,NNW,330,1.0,2.0,90,0.00,,,-99.99,,2013-03-28 05:12:00,
2013-03-28 00:22:00,26.0,24.0,-100.00,North,5,1.0,1.0,91,0.00,,,-99.99,,2013-03-28 05:22:00,
2013-03-28 00:32:00,26.0,24.0,-100.00,North,5,1.0,1.0,91,0.00,,,-99.99,,2013-03-28 05:32:00,
2013-03-28 00:42:00,26.0,24.0,-100.00,North,5,1.0,1.0,91,0.00,,,-99.99,,2013-03-28 05:42:00,
2013-03-28 00:52:00,26.0,24.0,-100.00,North,5,1.0,1.0,91,0.00,,,-99.99,,2013-03-28 05:52:00,
2013-03-28 01:02:00,24.0,22.0,-100.00,NNE,15,1.0,-999.0,92,0.00,,,-99.99,,2013-03-28 06:02:00,
2013-03-28 01:12:00,24.0,22.0,-100.00,NNE,30,1.0,2.0,92,0.00,,,-99.99,,2013-03-28 06:12:00,
2013-03-28 01:22:00,24.0,22.0,-100.00,NNE,30,1.0,2.0,92,0.00,,,-99.99,,2013-03-28 06:22:00,
2013-03-28 01:32:00,24.0,22.0,-100.00,NNE,25,0.0,1.0,93,0.00,,,-99.99,,2013-03-28 06:32:00,
2013-03-28 01:42:00,24.0,22.0,-100.00,NNE,25,0.0,0.0,93,0.00,,,-99.99,,2013-03-28 06:42:00,
2013-03-28 01:52:00,25.0,23.0,-100.00,South,185,0.0,1.0,93,0.00,,,-99.99,,2013-03-28 06:52:00,
2013-03-28 02:02:00,24.0,23.0,-100.00,South,185,0.0,0.0,93,0.00,,,-99.99,,2013-03-28 07:02:00,
2013-03-28 02:12:00,25.0,23.0,-100.00,South,185,0.0,0.0,93,0.00,,,-99.99,,2013-03-28 07:12:00,
2013-03-28 02:22:00,24.0,23.0,-100.00,South,185,0.0,0.0,94,0.00,,,-99.99,,2013-03-28 07:22:00,
2013-03-28 02:32:00,24.0,22.0,-100.00,South,185,0.0,0.0,94,0.00,,,-99.99,,2013-03-28 07:32:00,
2013-03-28 02:42:00,24.0,22.0,-100.00,South,185,0.0,0.0,94,0.00,,,-99.99,,2013-03-28 07:42:00,
2013-03-28 02:52:00,24.0,22.0,-100.00,South,185,0.0,0.0,94,0.00,,,-99.99,,2013-03-28 07:52:00,
2013-03-28 03:02:00,23.0,22.0,-100.00,South,185,0.0,0.0,94,0.00,,,-99.99,,2013-03-28 08:02:00,
2013-03-28 03:12:00,23.0,22.0,-100.00,South,185,0.0,0.0,94,0.00,,,-99.99,,2013-03-28 08:12:00,
2013-03-28 03:21:00,23.0,22.0,-100.00,South,185,0.0,0.0,94,0.00,,,-99.99,,2013-03-28 08:21:00,
2013-03-28 03:32:00,23.0,22.0,-100.00,South,185,0.0,0.0,94,0.00,,,-99.99,,2013-03-28 08:32:00,
2013-03-28 03:42:00,23.0,22.0,-100.00,NE,45,2.0,2.0,94,0.00,,,-99.99,,2013-03-28 08:42:00,
2013-03-28 03:52:00,23.0,22.0,-100.00,ENE,60,1.0,2.0,94,0.00,,,-99.99,,2013-03-28 08:52:00,
2013-03-28 04:02:00,23.0,22.0,-100.00,ENE,60,0.0,0.0,94,0.00,,,-99.99,,2013-03-28 09:02:00,
2013-03-28 04:12:00,24.0,22.0,-100.00,ENE,60,0.0,0.0,94,0.00,,,-99.99,,2013-03-28 09:12:00,
2013-03-28 04:22:00,24.0,22.0,-100.00,SW,225,0.0,0.0,94,0.00,,,-99.99,,2013-03-28 09:22:00,
2013-03-28 04:32:00,24.0,22.0,-100.00,NE,40,1.0,2.0,95,0.00,,,-99.99,,2013-03-28 09:32:00,
2013-03-28 04:42:00,23.0,22.0,-100.00,NE,45,0.0,0.0,95,0.00,,,-99.99,,2013-03-28 09:42:00,
2013-03-28 04:52:00,24.0,22.0,-100.00,NE,45,0.0,0.0,95,0.00,,,-99.99,,2013-03-28 09:52:00,
2013-03-28 05:03:00,24.0,23.0,-100.00,NE,45,0.0,0.0,95,0.00,,,-99.99,,2013-03-28 10:03:00,
2013-03-28 05:12:00,24.0,23.0,-100.00,ENE,65,0.0,0.0,95,0.00,,,-99.99,,2013-03-28 10:12:00,
2013-03-28 05:22:00,24.0,23.0,-100.00,East,90,0.0,1.0,95,0.00,,,-99.99,,2013-03-28 10:22:00,
2013-03-28 05:33:00,25.0,23.0,-100.00,ESE,105,1.0,1.0,95,0.00,,,-99.99,,2013-03-28 10:33:00,
2013-03-28 05:42:00,25.0,24.0,-100.00,SE,135,0.0,1.0,95,0.00,,,-99.99,,2013-03-28 10:42:00,
2013-03-28 05:52:00,26.0,24.0,-100.00,SSE,160,1.0,2.0,95,0.00,,,-99.99,,2013-03-28 10:52:00,
2013-03-28 06:02:00,26.0,25.0,-100.00,SSE,165,2.0,3.0,95,0.00,,,-99.99,,2013-03-28 11:02:00,
2013-03-28 06:12:00,26.0,25.0,-100.00,South,180,1.0,2.0,95,0.00,,,-99.99,,2013-03-28 11:12:00,
2013-03-28 06:22:00,26.0,25.0,-100.00,ESE,110,0.0,2.0,95,0.00,,,-99.99,,2013-03-28 11:22:00,
2013-03-28 06:32:00,26.0,25.0,-100.00,ENE,75,1.0,1.0,95,0.00,,,-99.99,,2013-03-28 11:32:00,
2013-03-28 06:42:00,26.0,25.0,-100.00,ENE,75,1.0,2.0,95,0.00,,,-99.99,,2013-03-28 11:42:00,
2013-03-28 06:52:00,26.0,25.0,-100.00,East,100,0.0,2.0,95,0.00,,,-99.99,,2013-03-28 11:52:00,
2013-03-28 07:02:00,26.0,25.0,-100.00,East,80,0.0,1.0,95,0.00,,,-99.99,,2013-03-28 12:02:00,
2013-03-28 07:12:00,26.0,25.0,-100.00,ENE,65,1.0,3.0,95,0.00,,,-99.99,,2013-03-28 12:12:00,
2013-03-28 07:22:00,27.0,26.0,-100.00,ENE,70,1.0,3.0,95,0.00,,,-99.99,,2013-03-28 12:22:00,
2013-03-28 07:32:00,27.0,26.0,-100.00,ESE,110,1.0,2.0,94,0.00,,,-99.99,,2013-03-28 12:32:00,
2013-03-28 07:42:00,27.0,26.0,-100.00,East,100,2.0,3.0,94,0.00,,,-99.99,,2013-03-28 12:42:00,
2013-03-28 07:52:00,28.0,26.0,-100.00,ESE,115,1.0,2.0,94,0.00,,,-99.99,,2013-03-28 12:52:00,
2013-03-28 08:02:00,28.0,26.0,-100.00,East,85,2.0,3.0,92,0.00,,,-99.99,,2013-03-28 13:02:00,
2013-03-28 08:12:00,29.0,26.0,-100.00,ENE,75,2.0,4.0,89,0.00,,,-99.99,,2013-03-28 13:12:00,
2013-03-28 08:22:00,30.0,26.0,-100.00,ENE,70,2.0,3.0,85,0.00,,,-99.99,,2013-03-28 13:22:00,
2013-03-28 08:32:00,31.0,26.0,-100.00,ENE,70,2.0,6.0,82,0.00,,,-99.99,,2013-03-28 13:32:00,
2013-03-28 08:42:00,32.0,26.0,-100.00,East,100,2.0,6.0,77,0.00,,,-99.99,,2013-03-28 13:42:00,
2013-03-28 08:52:00,33.0,25.0,-100.00,East,100,4.0,7.0,71,0.00,,,-99.99,,2013-03-28 13:52:00,
2013-03-28 09:02:00,34.0,24.0,-100.00,East,100,4.0,9.0,67,0.00,,,-99.99,,2013-03-28 14:02:00,
2013-03-28 09:12:00,36.0,25.0,-100.00,East,100,4.0,6.0,63,0.00,,,-99.99,,2013-03-28 14:12:00,
2013-03-28 09:22:00,35.0,23.0,-100.00,ESE,115,3.0,6.0,60,0.00,,,-99.99,,2013-03-28 14:22:00,
2013-03-28 09:32:00,36.0,23.0,-100.00,East,90,3.0,6.0,59,0.00,,,-99.99,,2013-03-28 14:32:00,
2013-03-28 09:42:00,36.0,22.0,-100.00,East,95,4.0,8.0,57,0.00,,,-99.99,,2013-03-28 14:42:00,
2013-03-28 09:51:00,36.0,21.0,-100.00,ESE,105,4.0,9.0,54,0.00,,,-99.99,,2013-03-28 14:51:00,
2013-03-28 10:02:00,36.0,21.0,-100.00,ESE,115,4.0,8.0,53,0.00,,,-99.99,,2013-03-28 15:02:00,
2013-03-28 10:12:00,36.0,21.0,-100.00,East,95,5.0,8.0,54,0.00,,,-99.99,,2013-03-28 15:12:00,
2013-03-28 10:21:00,36.0,21.0,-100.00,ESE,110,4.0,7.0,54,0.00,,,-99.99,,2013-03-28 15:21:00,
2013-03-28 10:33:00,36.0,22.0,-100.00,East,95,4.0,7.0,54,0.00,,,-99.99,,2013-03-28 15:33:00,
2013-03-28 10:43:00,37.0,22.0,-100.00,ESE,110,6.0,7.0,54,0.00,,,-99.99,,2013-03-28 15:43:00,
2013-03-28 10:52:00,37.0,22.0,-100.00,SE,135,6.0,9.0,53,0.00,,,-99.99,,2013-03-28 15:52:00,
2013-03-28 11:02:00,39.0,23.0,-100.00,East,100,4.0,9.0,53,0.00,,,-99.99,,2013-03-28 16:02:00,
2013-03-28 11:12:00,39.0,23.0,-100.00,South,170,2.0,7.0,51,0.00,,,-99.99,,2013-03-28 16:12:00,
2013-03-28 11:23:00,38.0,22.0,-100.00,SSE,155,7.0,8.0,51,0.00,,,-99.99,,2013-03-28 16:23:00,
2013-03-28 11:32:00,38.0,22.0,-100.00,SSE,155,7.0,8.0,51,0.00,,,-99.99,,2013-03-28 16:32:00,
2013-03-28 11:42:00,39.0,23.0,-100.00,SSE,155,6.0,9.0,51,0.00,,,-99.99,,2013-03-28 16:42:00,
2013-03-28 11:52:00,40.0,24.0,-100.00,SE,135,6.0,7.0,51,0.00,,,-99.99,,2013-03-28 16:52:00,
2013-03-28 12:02:00,40.0,23.0,-100.00,SSE,155,6.0,9.0,50,0.00,,,-99.99,,2013-03-28 17:02:00,
2013-03-28 12:12:00,40.0,23.0,-100.00,SSE,155,5.0,9.0,50,0.00,,,-99.99,,2013-03-28 17:12:00,
2013-03-28 12:22:00,40.0,24.0,-100.00,SSE,165,6.0,9.0,51,0.00,,,-99.99,,2013-03-28 17:22:00,
2013-03-28 12:32:00,40.0,24.0,-100.00,SSE,150,6.0,9.0,52,0.00,,,-99.99,,2013-03-28 17:32:00,
2013-03-28 12:42:00,41.0,25.0,-100.00,South,180,3.0,7.0,51,0.00,,,-99.99,,2013-03-28 17:42:00,
2013-03-28 12:52:00,41.0,25.0,-100.00,South,170,5.0,10.0,52,0.00,,,-99.99,,2013-03-28 17:52:00,
2013-03-28 13:02:00,40.0,25.0,-100.00,South,190,6.0,9.0,54,0.00,,,-99.99,,2013-03-28 18:02:00,
2013-03-28 13:12:00,41.0,26.0,-100.00,SSE,155,5.0,10.0,55,0.00,,,-99.99,,2013-03-28 18:12:00,
2013-03-28 13:22:00,41.0,26.0,-100.00,South,170,5.0,8.0,55,0.00,,,-99.99,,2013-03-28 18:22:00,
2013-03-28 13:32:00,42.0,27.0,-100.00,SSE,160,5.0,11.0,56,0.00,,,-99.99,,2013-03-28 18:32:00,
2013-03-28 13:42:00,42.0,27.0,-100.00,SSE,165,5.0,9.0,55,0.00,,,-99.99,,2013-03-28 18:42:00,
2013-03-28 13:52:00,42.0,27.0,-100.00,South,185,6.0,9.0,53,0.00,,,-99.99,,2013-03-28 18:52:00,
2013-03-28 14:02:00,43.0,27.0,-100.00,South,170,5.0,8.0,51,0.00,,,-99.99,,2013-03-28 19:02:00,
2013-03-28 14:12:00,43.0,27.0,-100.00,SSE,165,6.0,9.0,51,0.00,,,-99.99,,2013-03-28 19:12:00,
2013-03-28 14:22:00,43.0,27.0,-100.00,SSE,160,6.0,9.0,51,0.00,,,-99.99,,2013-03-28 19:22:00,
2013-03-28 14:32:00,44.0,27.0,-100.00,SSE,155,4.0,9.0,50,0.00,,,-99.99,,2013-03-28 19:32:00,
2013-03-28 14:42:00,45.0,27.0,-100.00,South,185,6.0,7.0,49,0.00,,,-99.99,,2013-03-28 19:42:00,
2013-03-28 14:52:00,45.0,27.0,-100.00,SSE,160,3.0,7.0,50,0.00,,,-99.99,,2013-03-28 19:52:00,
2013-03-28 15:03:00,45.0,28.0,-100.00,SSW,210,5.0,7.0,49,0.00,,,-99.99,,2013-03-28 20:03:00,
2013-03-28 15:12:00,44.0,27.0,-100.00,SSW,195,3.0,7.0,51,0.00,,,-99.99,,2013-03-28 20:12:00,
2013-03-28 15:22:00,45.0,28.0,-100.00,SE,135,1.0,6.0,49,0.00,,,-99.99,,2013-03-28 20:22:00,
2013-03-28 15:32:00,45.0,28.0,-100.00,SE,135,1.0,6.0,49,0.00,,,-99.99,,2013-03-28 20:32:00,
2013-03-28 15:42:00,45.0,27.0,-100.00,SSW,195,2.0,7.0,49,0.00,,,-99.99,,2013-03-28 20:42:00,
2013-03-28 15:52:00,46.0,28.0,-100.00,SSE,155,2.0,5.0,49,0.00,,,-99.99,,2013-03-28 20:52:00,
2013-03-28 16:02:00,46.0,28.0,-100.00,ESE,115,2.0,5.0,48,0.00,,,-99.99,,2013-03-28 21:02:00,
2013-03-28 16:12:00,46.0,27.0,-100.00,SE,125,3.0,7.0,48,0.00,,,-99.99,,2013-03-28 21:12:00,
2013-03-28 16:22:00,45.0,28.0,-100.00,ENE,60,4.0,6.0,49,0.00,,,-99.99,,2013-03-28 21:22:00,
2013-03-28 16:32:00,45.0,28.0,-100.00,East,80,4.0,7.0,49,0.00,,,-99.99,,2013-03-28 21:32:00,
2013-03-28 16:42:00,45.0,28.0,-100.00,ENE,60,3.0,6.0,49,0.00,,,-99.99,,2013-03-28 21:42:00,
2013-03-28 16:53:00,46.0,29.0,-100.00,ENE,65,3.0,6.0,49,0.00,,,-99.99,,2013-03-28 21:53:00,
2013-03-28 17:02:00,46.0,28.0,-100.00,East,90,2.0,6.0,50,0.00,,,-99.99,,2013-03-28 22:02:00,
2013-03-28 17:12:00,45.0,28.0,-100.00,East,85,4.0,9.0,50,0.00,,,-99.99,,2013-03-28 22:12:00,
2013-03-28 17:22:00,46.0,28.0,-100.00,ENE,60,4.0,7.0,50,0.00,,,-99.99,,2013-03-28 22:22:00,
2013-03-28 17:32:00,46.0,29.0,-100.00,East,85,4.0,7.0,49,0.00,,,-99.99,,2013-03-28 22:32:00,
2013-03-28 17:42:00,46.0,29.0,-100.00,NE,50,7.0,8.0,49,0.00,,,-99.99,,2013-03-28 22:42:00,
2013-03-28 17:52:00,46.0,28.0,-100.00,ENE,65,4.0,9.0,49,0.00,,,-99.99,,2013-03-28 22:52:00,
2013-03-28 18:02:00,46.0,28.0,-100.00,East,95,4.0,7.0,49,0.00,,,-99.99,,2013-03-28 23:02:00,
2013-03-28 18:12:00,46.0,28.0,-100.00,ESE,120,4.0,8.0,49,0.00,,,-99.99,,2013-03-28 23:12:00,
2013-03-28 18:22:00,46.0,29.0,-100.00,ENE,65,4.0,8.0,52,0.00,,,-99.99,,2013-03-28 23:22:00,
2013-03-28 18:32:00,44.0,29.0,-100.00,ENE,65,6.0,10.0,54,0.00,,,-99.99,,2013-03-28 23:32:00,
2013-03-28 18:42:00,44.0,29.0,-100.00,ENE,60,4.0,8.0,55,0.00,,,-99.99,,2013-03-28 23:42:00,
2013-03-28 18:52:00,43.0,29.0,-100.00,NE,55,4.0,7.0,57,0.00,,,-99.99,,2013-03-28 23:52:00,
2013-03-28 19:02:00,42.0,30.0,-100.00,NE,50,7.0,9.0,61,0.00,,,-99.99,,2013-03-29 00:02:00,
2013-03-28 19:12:00,41.0,30.0,-100.00,ENE,65,6.0,9.0,64,0.00,,,-99.99,,2013-03-29 00:12:00,
2013-03-28 19:22:00,40.0,30.0,-100.00,ENE,60,4.0,6.0,66,0.00,,,-99.99,,2013-03-29 00:22:00,
2013-03-28 19:32:00,40.0,30.0,-100.00,ENE,75,3.0,7.0,67,0.00,,,-99.99,,2013-03-29 00:32:00,
2013-03-28 19:42:00,39.0,29.0,-100.00,ENE,65,4.0,6.0,68,0.00,,,-99.99,,2013-03-29 00:42:00,
2013-03-28 19:52:00,38.0,28.0,-100.00,East,85,2.0,7.0,68,0.00,,,-99.99,,2013-03-29 00:52:00,
2013-03-28 20:02:00,37.0,28.0,-100.00,ENE,70,2.0,6.0,69,0.00,,,-99.99,,2013-03-29 01:02:00,
2013-03-28 20:12:00,36.0,28.0,-100.00,NE,55,2.0,4.0,71,0.00,,,-99.99,,2013-03-29 01:12:00,
2013-03-28 20:22:00,36.0,28.0,-100.00,ENE,60,3.0,4.0,74,0.00,,,-99.99,,2013-03-29 01:22:00,
2013-03-28 20:32:00,35.0,29.0,-100.00,ENE,60,4.0,4.0,75,0.00,,,-99.99,,2013-03-29 01:32:00,
2013-03-28 20:42:00,35.0,29.0,-100.00,ENE,60,3.0,4.0,77,0.00,,,-99.99,,2013-03-29 01:42:00,
2013-03-28 20:52:00,34.0,28.0,-100.00,NE,55,3.0,4.0,79,0.00,,,-99.99,,2013-03-29 01:52:00,
2013-03-28 21:02:00,34.0,28.0,-100.00,ENE,70,2.0,4.0,80,0.00,,,-99.99,,2013-03-29 02:02:00,
2013-03-28 21:12:00,34.0,28.0,-100.00,NE,45,2.0,4.0,81,0.00,,,-99.99,,2013-03-29 02:12:00,
2013-03-28 21:22:00,33.0,29.0,-100.00,ENE,75,1.0,3.0,82,0.00,,,-99.99,,2013-03-29 02:22:00,
2013-03-28 21:32:00,33.0,29.0,-100.00,ENE,65,1.0,2.0,83,0.00,,,-99.99,,2013-03-29 02:32:00,
2013-03-28 21:42:00,33.0,29.0,-100.00,ENE,70,2.0,3.0,84,0.00,,,-99.99,,2013-03-29 02:42:00,
2013-03-28 21:52:00,33.0,29.0,-100.00,East,80,2.0,2.0,84,0.00,,,-99.99,,2013-03-29 02:52:00,
2013-03-28 22:02:00,33.0,29.0,-100.00,East,80,1.0,2.0,85,0.00,,,-99.99,,2013-03-29 03:02:00,
2013-03-28 22:12:00,33.0,29.0,-100.00,ENE,70,1.0,2.0,85,0.00,,,-99.99,,2013-03-29 03:12:00,
2013-03-28 22:22:00,32.0,28.0,-100.00,East,80,1.0,2.0,85,0.00,,,-99.99,,2013-03-29 03:22:00,
2013-03-28 22:32:00,32.0,28.0,-100.00,East,90,1.0,4.0,86,0.00,,,-99.99,,2013-03-29 03:32:00,
2013-03-28 22:42:00,32.0,28.0,-100.00,East,80,1.0,4.0,86,0.00,,,-99.99,,2013-03-29 03:42:00,
2013-03-28 22:52:00,32.0,28.0,-100.00,ENE,65,2.0,4.0,86,0.00,,,-99.99,,2013-03-29 03:52:00,
2013-03-28 23:03:00,32.0,28.0,-100.00,ENE,70,1.0,2.0,86,0.00,,,-99.99,,2013-03-29 04:03:00,
2013-03-28 23:12:00,32.0,28.0,-100.00,ENE,70,1.0,2.0,86,0.00,,,-99.99,,2013-03-29 04:12:00,
2013-03-28 23:22:00,32.0,28.0,-100.00,East,100,2.0,4.0,86,0.00,,,-99.99,,2013-03-29 04:22:00,
2013-03-28 23:33:00,32.0,28.0,-100.00,ENE,65,1.0,4.0,86,0.00,,,-99.99,,2013-03-29 04:33:00,
2013-03-28 23:43:00,32.0,28.0,-100.00,East,95,1.0,2.0,85,0.00,,,-99.99,,2013-03-29 04:43:00,
2013-03-28 23:52:00,32.0,28.0,-100.00,East,85,2.0,3.0,85,0.00,,,-99.99,,2013-03-29 04:52:00,